Data supplied by UK-AIR on 2/5/2024
All Data GMT hour ending 
Status: R =Ratified P=Provisional,P*=As supplied
,,Sunderland Wessington Way,,,,,,,,,,,,,,,,,,,,,,,
Date,time,"Nitric oxide",status,unit,"Nitrogen dioxide",status,unit,"Nitrogen oxides as nitrogen dioxide",status,unit
 
01-01-2024,01:00,0.87802,P,ugm-3,6.40038,P,ugm-3,7.74665,P,ugm-3
01-01-2024,02:00,0.65851,P,ugm-3,5.92860,P,ugm-3,6.93831,P,ugm-3
01-01-2024,03:00,0.55974,P,ugm-3,6.26530,P,ugm-3,7.12355,P,ugm-3
01-01-2024,04:00,0.19755,P,ugm-3,5.60812,P,ugm-3,5.91103,P,ugm-3
01-01-2024,05:00,0.29633,P,ugm-3,3.99154,P,ugm-3,4.44591,P,ugm-3
01-01-2024,06:00,0.23048,P,ugm-3,4.69877,P,ugm-3,5.05217,P,ugm-3
01-01-2024,07:00,0.29633,P,ugm-3,4.34519,P,ugm-3,4.79956,P,ugm-3
01-01-2024,08:00,0.46096,P,ugm-3,3.08233,P,ugm-3,3.78912,P,ugm-3
01-01-2024,09:00,0.98777,P,ugm-3,4.64909,P,ugm-3,6.16364,P,ugm-3
01-01-2024,10:00,2.53527,P,ugm-3,9.14723,P,ugm-3,13.03458,P,ugm-3
01-01-2024,11:00,3.49011,P,ugm-3,7.43055,P,ugm-3,12.78198,P,ugm-3
01-01-2024,12:00,11.65565,P,ugm-3,17.79653,P,ugm-3,35.66828,P,ugm-3
01-01-2024,13:00,4.28032,P,ugm-3,7.17882,P,ugm-3,13.74189,P,ugm-3
01-01-2024,14:00,2.10724,P,ugm-3,5.86285,P,ugm-3,9.09390,P,ugm-3
01-01-2024,15:00,12.21539,P,ugm-3,20.57584,P,ugm-3,39.30584,P,ugm-3
01-01-2024,16:00,32.79387,P,ugm-3,57.37840,P,ugm-3,107.66163,P,ugm-3
01-01-2024,17:00,25.48439,P,ugm-3,58.22917,P,ugm-3,97.30469,P,ugm-3
01-01-2024,18:00,11.82028,P,ugm-3,38.96528,P,ugm-3,57.08946,P,ugm-3
01-01-2024,19:00,3.58889,P,ugm-3,22.83976,P,ugm-3,28.34264,P,ugm-3
01-01-2024,20:00,3.62181,P,ugm-3,23.64814,P,ugm-3,29.20151,P,ugm-3
01-01-2024,21:00,1.81091,P,ugm-3,10.81364,P,ugm-3,13.59032,P,ugm-3
01-01-2024,22:00,1.34995,P,ugm-3,6.67035,P,ugm-3,8.74025,P,ugm-3
01-01-2024,23:00,0.69144,P,ugm-3,3.18363,P,ugm-3,4.24382,P,ugm-3
01-01-2024,24:00,0.42803,P,ugm-3,1.46560,P,ugm-3,2.12191,P,ugm-3
02-01-2024,01:00,0.43935,P,ugm-3,1.21394,P,ugm-3,1.88760,P,ugm-3
02-01-2024,02:00,0.13181,P,ugm-3,0.94395,P,ugm-3,1.14604,P,ugm-3
02-01-2024,03:00,0.09885,P,ugm-3,1.16301,P,ugm-3,1.31458,P,ugm-3
02-01-2024,04:00,0.13181,P,ugm-3,3.23603,P,ugm-3,3.43813,P,ugm-3
02-01-2024,05:00,0.69198,P,ugm-3,5.66356,P,ugm-3,6.72458,P,ugm-3
02-01-2024,06:00,0.88969,P,ugm-3,5.96714,P,ugm-3,7.33131,P,ugm-3
02-01-2024,07:00,1.31805,P,ugm-3,11.37761,P,ugm-3,13.39859,P,ugm-3
02-01-2024,08:00,2.14183,P,ugm-3,33.37243,P,ugm-3,36.65653,P,ugm-3
02-01-2024,09:00,15.38825,P,ugm-3,58.06059,P,ugm-3,81.65558,P,ugm-3
02-01-2024,10:00,17.99141,P,ugm-3,52.70401,P,ugm-3,80.29044,P,ugm-3
02-01-2024,11:00,13.37823,P,ugm-3,54.11465,P,ugm-3,74.62764,P,ugm-3
02-01-2024,12:00,11.50000,P,ugm-3,32.47260,P,ugm-3,50.10569,P,ugm-3
02-01-2024,13:00,12.25788,P,ugm-3,37.52950,P,ugm-3,56.32466,P,ugm-3
02-01-2024,14:00,9.09456,P,ugm-3,37.77884,P,ugm-3,51.72363,P,ugm-3
02-01-2024,15:00,27.64614,P,ugm-3,62.16945,P,ugm-3,104.55959,P,ugm-3
02-01-2024,16:00,19.30946,P,ugm-3,58.11545,P,ugm-3,87.72287,P,ugm-3
02-01-2024,17:00,37.76218,P,ugm-3,61.92773,P,ugm-3,119.82893,P,ugm-3
02-01-2024,18:00,65.17766,P,ugm-3,68.48012,P,ugm-3,168.41780,P,ugm-3
02-01-2024,19:00,33.14900,P,ugm-3,59.79912,P,ugm-3,110.62688,P,ugm-3
02-01-2024,20:00,30.11748,P,ugm-3,54.94197,P,ugm-3,101.12146,P,ugm-3
02-01-2024,21:00,5.96418,P,ugm-3,34.08447,P,ugm-3,43.22943,P,ugm-3
02-01-2024,22:00,1.87822,P,ugm-3,26.64756,P,ugm-3,29.52747,P,ugm-3
02-01-2024,23:00,0.75788,P,ugm-3,24.16886,P,ugm-3,25.33093,P,ugm-3
02-01-2024,24:00,1.05444,P,ugm-3,19.06255,P,ugm-3,20.67934,P,ugm-3
03-01-2024,01:00,0.61557,P,ugm-3,13.89875,P,ugm-3,14.84261,P,ugm-3
03-01-2024,02:00,0.70351,P,ugm-3,9.71593,P,ugm-3,10.79463,P,ugm-3
03-01-2024,03:00,0.49466,P,ugm-3,7.18571,P,ugm-3,7.94417,P,ugm-3
03-01-2024,04:00,0.23084,P,ugm-3,7.89382,P,ugm-3,8.24777,P,ugm-3
03-01-2024,05:00,1.02229,P,ugm-3,12.70166,P,ugm-3,14.26915,P,ugm-3
03-01-2024,06:00,1.12122,P,ugm-3,15.07996,P,ugm-3,16.79914,P,ugm-3
03-01-2024,07:00,7.35388,P,ugm-3,32.39186,P,ugm-3,43.66764,P,ugm-3
03-01-2024,08:00,30.53672,P,ugm-3,50.43054,P,ugm-3,97.25285,P,ugm-3
03-01-2024,09:00,30.33885,P,ugm-3,52.20132,P,ugm-3,98.72025,P,ugm-3
03-01-2024,10:00,29.31657,P,ugm-3,54.02181,P,ugm-3,98.97325,P,ugm-3
03-01-2024,11:00,17.11507,P,ugm-3,48.34139,P,ugm-3,74.58413,P,ugm-3
03-01-2024,12:00,26.81031,P,ugm-3,51.53970,P,ugm-3,92.64827,P,ugm-3
03-01-2024,13:00,20.74254,P,ugm-3,42.12155,P,ugm-3,73.92634,P,ugm-3
03-01-2024,14:00,16.68637,P,ugm-3,39.89076,P,ugm-3,65.47617,P,ugm-3
03-01-2024,15:00,15.86194,P,ugm-3,51.42662,P,ugm-3,75.74793,P,ugm-3
03-01-2024,16:00,33.14190,P,ugm-3,59.94613,P,ugm-3,110.76301,P,ugm-3
03-01-2024,17:00,61.46916,P,ugm-3,61.24185,P,ugm-3,155.49325,P,ugm-3
03-01-2024,18:00,61.40320,P,ugm-3,56.78900,P,ugm-3,150.93926,P,ugm-3
03-01-2024,19:00,32.38343,P,ugm-3,66.67509,P,ugm-3,116.32899,P,ugm-3
03-01-2024,20:00,13.88332,P,ugm-3,56.23146,P,ugm-3,77.51893,P,ugm-3
03-01-2024,21:00,14.80668,P,ugm-3,54.86627,P,ugm-3,77.56952,P,ugm-3
03-01-2024,22:00,6.89220,P,ugm-3,46.45811,P,ugm-3,57.02600,P,ugm-3
03-01-2024,23:00,5.37525,P,ugm-3,43.97707,P,ugm-3,52.21902,P,ugm-3
03-01-2024,24:00,1.81374,P,ugm-3,26.97167,P,ugm-3,29.75269,P,ugm-3
04-01-2024,01:00,3.08026,P,ugm-3,29.84650,P,ugm-3,34.56949,P,ugm-3
04-01-2024,02:00,0.57205,P,ugm-3,10.12840,P,ugm-3,11.00552,P,ugm-3
04-01-2024,03:00,0.29703,P,ugm-3,6.88721,P,ugm-3,7.34264,P,ugm-3
04-01-2024,04:00,0.33003,P,ugm-3,6.93788,P,ugm-3,7.44392,P,ugm-3
04-01-2024,05:00,0.89107,P,ugm-3,8.96404,P,ugm-3,10.33034,P,ugm-3
04-01-2024,06:00,0.85807,P,ugm-3,8.60954,P,ugm-3,9.92523,P,ugm-3
04-01-2024,07:00,2.34319,P,ugm-3,12.51032,P,ugm-3,16.10317,P,ugm-3
04-01-2024,08:00,4.62038,P,ugm-3,21.83033,P,ugm-3,28.91482,P,ugm-3
04-01-2024,09:00,8.48170,P,ugm-3,34.08909,P,ugm-3,47.09418,P,ugm-3
04-01-2024,10:00,13.06909,P,ugm-3,38.29704,P,ugm-3,58.33602,P,ugm-3
04-01-2024,11:00,18.34952,P,ugm-3,35.77076,P,ugm-3,63.90630,P,ugm-3
04-01-2024,12:00,15.61030,P,ugm-3,33.48907,P,ugm-3,57.42452,P,ugm-3
04-01-2024,13:00,8.91074,P,ugm-3,18.89788,P,ugm-3,32.56082,P,ugm-3
04-01-2024,14:00,6.76556,P,ugm-3,14.74318,P,ugm-3,25.11690,P,ugm-3
04-01-2024,15:00,10.75889,P,ugm-3,22.64714,P,ugm-3,39.14388,P,ugm-3
04-01-2024,16:00,13.33311,P,ugm-3,27.86571,P,ugm-3,48.30952,P,ugm-3
04-01-2024,17:00,9.00975,P,ugm-3,26.03807,P,ugm-3,39.85282,P,ugm-3
04-01-2024,18:00,13.33311,P,ugm-3,41.23438,P,ugm-3,61.67819,P,ugm-3
04-01-2024,19:00,10.95691,P,ugm-3,45.23230,P,ugm-3,62.03266,P,ugm-3
04-01-2024,20:00,7.72264,P,ugm-3,43.65902,P,ugm-3,55.50024,P,ugm-3
04-01-2024,21:00,13.26710,P,ugm-3,47.46289,P,ugm-3,67.80550,P,ugm-3
04-01-2024,22:00,10.19785,P,ugm-3,42.49699,P,ugm-3,58.13347,P,ugm-3
04-01-2024,23:00,17.39244,P,ugm-3,42.55535,P,ugm-3,69.22339,P,ugm-3
04-01-2024,24:00,13.56413,P,ugm-3,37.28479,P,ugm-3,58.08283,P,ugm-3
05-01-2024,01:00,4.66802,P,ugm-3,38.11481,P,ugm-3,45.27234,P,ugm-3
05-01-2024,02:00,2.06978,P,ugm-3,31.21984,P,ugm-3,34.39347,P,ugm-3
05-01-2024,03:00,0.79268,P,ugm-3,25.59323,P,ugm-3,26.80866,P,ugm-3
05-01-2024,04:00,0.95783,P,ugm-3,18.34645,P,ugm-3,19.81510,P,ugm-3
05-01-2024,05:00,3.53405,P,ugm-3,23.11292,P,ugm-3,28.53171,P,ugm-3
05-01-2024,06:00,2.27896,P,ugm-3,20.27362,P,ugm-3,23.76798,P,ugm-3
05-01-2024,07:00,9.11586,P,ugm-3,31.07529,P,ugm-3,45.05274,P,ugm-3
05-01-2024,08:00,20.94004,P,ugm-3,42.89581,P,ugm-3,75.00343,P,ugm-3
05-01-2024,09:00,13.97104,P,ugm-3,43.39520,P,ugm-3,64.81716,P,ugm-3
05-01-2024,10:00,22.22815,P,ugm-3,50.44820,P,ugm-3,84.53090,P,ugm-3
05-01-2024,11:00,35.73679,P,ugm-3,51.32407,P,ugm-3,106.11972,P,ugm-3
05-01-2024,12:00,44.45631,P,ugm-3,55.08350,P,ugm-3,123.24888,P,ugm-3
05-01-2024,13:00,12.58384,P,ugm-3,31.02829,P,ugm-3,50.32325,P,ugm-3
05-01-2024,14:00,14.73069,P,ugm-3,24.99989,P,ugm-3,47.58664,P,ugm-3
05-01-2024,15:00,14.49950,P,ugm-3,29.20592,P,ugm-3,51.43816,P,ugm-3
05-01-2024,16:00,10.47002,P,ugm-3,26.92113,P,ugm-3,42.97494,P,ugm-3
05-01-2024,17:00,10.20579,P,ugm-3,24.28559,P,ugm-3,39.93426,P,ugm-3
05-01-2024,18:00,9.97459,P,ugm-3,22.00484,P,ugm-3,37.29900,P,ugm-3
05-01-2024,19:00,5.84604,P,ugm-3,17.43944,P,ugm-3,26.40324,P,ugm-3
05-01-2024,20:00,5.54878,P,ugm-3,19.51692,P,ugm-3,28.02493,P,ugm-3
05-01-2024,21:00,3.50102,P,ugm-3,22.75814,P,ugm-3,28.12629,P,ugm-3
05-01-2024,22:00,5.91210,P,ugm-3,33.70714,P,ugm-3,42.77223,P,ugm-3
05-01-2024,23:00,3.89736,P,ugm-3,28.23178,P,ugm-3,34.20765,P,ugm-3
05-01-2024,24:00,2.97256,P,ugm-3,26.60910,P,ugm-3,31.16697,P,ugm-3
06-01-2024,01:00,3.48171,P,ugm-3,23.94212,P,ugm-3,29.28066,P,ugm-3
06-01-2024,02:00,0.30851,P,ugm-3,13.32201,P,ugm-3,13.79505,P,ugm-3
06-01-2024,03:00,0.36360,P,ugm-3,11.36101,P,ugm-3,11.91851,P,ugm-3
06-01-2024,04:00,0.76025,P,ugm-3,10.75282,P,ugm-3,11.91851,P,ugm-3
06-01-2024,05:00,1.61966,P,ugm-3,12.83312,P,ugm-3,15.31656,P,ugm-3
06-01-2024,06:00,1.61966,P,ugm-3,15.36898,P,ugm-3,17.85241,P,ugm-3
06-01-2024,07:00,3.33847,P,ugm-3,22.36974,P,ugm-3,27.48866,P,ugm-3
06-01-2024,08:00,7.00749,P,ugm-3,31.55338,P,ugm-3,42.29805,P,ugm-3
06-01-2024,09:00,10.67650,P,ugm-3,34.60026,P,ugm-3,50.97067,P,ugm-3
06-01-2024,10:00,19.46891,P,ugm-3,40.28981,P,ugm-3,70.14172,P,ugm-3
06-01-2024,11:00,24.95591,P,ugm-3,39.02764,P,ugm-3,77.29283,P,ugm-3
06-01-2024,12:00,26.37724,P,ugm-3,42.47790,P,ugm-3,82.92243,P,ugm-3
06-01-2024,13:00,8.26355,P,ugm-3,27.64949,P,ugm-3,40.32008,P,ugm-3
06-01-2024,14:00,5.02424,P,ugm-3,23.18298,P,ugm-3,30.88670,P,ugm-3
06-01-2024,15:00,8.82547,P,ugm-3,29.37446,P,ugm-3,42.90665,P,ugm-3
06-01-2024,16:00,57.97704,P,ugm-3,55.24106,P,ugm-3,144.13795,P,ugm-3
06-01-2024,17:00,41.74743,P,ugm-3,53.80394,P,ugm-3,117.81578,P,ugm-3
06-01-2024,18:00,5.12340,P,ugm-3,40.73120,P,ugm-3,48.58697,P,ugm-3
06-01-2024,19:00,6.34640,P,ugm-3,36.82727,P,ugm-3,46.55828,P,ugm-3
06-01-2024,20:00,6.08197,P,ugm-3,40.07288,P,ugm-3,49.39844,P,ugm-3
06-01-2024,21:00,3.40458,P,ugm-3,33.88259,P,ugm-3,39.10287,P,ugm-3
06-01-2024,22:00,1.98325,P,ugm-3,29.82373,P,ugm-3,32.86467,P,ugm-3
06-01-2024,23:00,6.14808,P,ugm-3,36.72562,P,ugm-3,46.15254,P,ugm-3
06-01-2024,24:00,3.20626,P,ugm-3,28.20206,P,ugm-3,33.11825,P,ugm-3
07-01-2024,01:00,2.86693,P,ugm-3,34.31415,P,ugm-3,38.71004,P,ugm-3
07-01-2024,02:00,2.38175,P,ugm-3,26.26033,P,ugm-3,29.91230,P,ugm-3
07-01-2024,03:00,1.19088,P,ugm-3,16.95380,P,ugm-3,18.77978,P,ugm-3
07-01-2024,04:00,2.28251,P,ugm-3,15.22922,P,ugm-3,18.72903,P,ugm-3
07-01-2024,05:00,0.62852,P,ugm-3,14.56767,P,ugm-3,15.53139,P,ugm-3
07-01-2024,06:00,0.92624,P,ugm-3,14.87252,P,ugm-3,16.29273,P,ugm-3
07-01-2024,07:00,2.08403,P,ugm-3,14.41692,P,ugm-3,17.61239,P,ugm-3
07-01-2024,08:00,1.29012,P,ugm-3,20.15154,P,ugm-3,22.12969,P,ugm-3
07-01-2024,09:00,2.81179,P,ugm-3,20.00085,P,ugm-3,24.31221,P,ugm-3
07-01-2024,10:00,5.95438,P,ugm-3,28.42964,P,ugm-3,37.55957,P,ugm-3
07-01-2024,11:00,11.47873,P,ugm-3,34.88141,P,ugm-3,52.48188,P,ugm-3
07-01-2024,12:00,11.18101,P,ugm-3,31.73422,P,ugm-3,48.87819,P,ugm-3
07-01-2024,13:00,11.44565,P,ugm-3,31.83601,P,ugm-3,49.38575,P,ugm-3
07-01-2024,14:00,11.41257,P,ugm-3,33.76471,P,ugm-3,51.26373,P,ugm-3
07-01-2024,15:00,9.62625,P,ugm-3,36.50368,P,ugm-3,51.26373,P,ugm-3
07-01-2024,16:00,11.87569,P,ugm-3,42.24147,P,ugm-3,60.45060,P,ugm-3
07-01-2024,17:00,9.13005,P,ugm-3,45.03021,P,ugm-3,59.02943,P,ugm-3
07-01-2024,18:00,13.76124,P,ugm-3,49.75534,P,ugm-3,70.85561,P,ugm-3
07-01-2024,19:00,4.36655,P,ugm-3,35.33083,P,ugm-3,42.02611,P,ugm-3
07-01-2024,20:00,4.53195,P,ugm-3,34.26512,P,ugm-3,41.21401,P,ugm-3
07-01-2024,21:00,4.43271,P,ugm-3,40.15273,P,ugm-3,46.94946,P,ugm-3
07-01-2024,22:00,2.77871,P,ugm-3,40.91236,P,ugm-3,45.17299,P,ugm-3
07-01-2024,23:00,5.59051,P,ugm-3,45.58485,P,ugm-3,54.15683,P,ugm-3
07-01-2024,24:00,11.08177,P,ugm-3,46.09811,P,ugm-3,63.08992,P,ugm-3
08-01-2024,01:00,10.85865,P,ugm-3,43.96598,P,ugm-3,60.61567,P,ugm-3
08-01-2024,02:00,9.44614,P,ugm-3,40.10409,P,ugm-3,54.58797,P,ugm-3
08-01-2024,03:00,6.91908,P,ugm-3,38.86548,P,ugm-3,49.47458,P,ugm-3
08-01-2024,04:00,2.94640,P,ugm-3,34.13744,P,ugm-3,38.65519,P,ugm-3
08-01-2024,05:00,1.12559,P,ugm-3,29.56400,P,ugm-3,31.28988,P,ugm-3
08-01-2024,06:00,2.18497,P,ugm-3,28.14282,P,ugm-3,31.49306,P,ugm-3
08-01-2024,07:00,1.02628,P,ugm-3,14.22373,P,ugm-3,15.79733,P,ugm-3
08-01-2024,08:00,2.15187,P,ugm-3,18.18691,P,ugm-3,21.48639,P,ugm-3
08-01-2024,09:00,2.01944,P,ugm-3,13.91997,P,ugm-3,17.01641,P,ugm-3
08-01-2024,10:00,2.41671,P,ugm-3,12.09175,P,ugm-3,15.79733,P,ugm-3
08-01-2024,11:00,2.05255,P,ugm-3,11.27866,P,ugm-3,14.42585,P,ugm-3
08-01-2024,12:00,2.78087,P,ugm-3,14.07314,P,ugm-3,18.33709,P,ugm-3
08-01-2024,13:00,3.80715,P,ugm-3,17.93464,P,ugm-3,23.77218,P,ugm-3
08-01-2024,14:00,3.07882,P,ugm-3,15.90208,P,ugm-3,20.62287,P,ugm-3
08-01-2024,15:00,2.25118,P,ugm-3,14.27578,P,ugm-3,17.72754,P,ugm-3
08-01-2024,16:00,2.88019,P,ugm-3,17.98448,P,ugm-3,22.40071,P,ugm-3
08-01-2024,17:00,2.88019,P,ugm-3,12.75257,P,ugm-3,17.16880,P,ugm-3
08-01-2024,18:00,3.17814,P,ugm-3,14.93707,P,ugm-3,19.81015,P,ugm-3
08-01-2024,19:00,1.05938,P,ugm-3,8.07753,P,ugm-3,9.70189,P,ugm-3
08-01-2024,20:00,1.42354,P,ugm-3,10.36369,P,ugm-3,12.54643,P,ugm-3
08-01-2024,21:00,0.89385,P,ugm-3,6.60430,P,ugm-3,7.97486,P,ugm-3
08-01-2024,22:00,0.46348,P,ugm-3,7.31499,P,ugm-3,8.02565,P,ugm-3
08-01-2024,23:00,0.62901,P,ugm-3,5.28335,P,ugm-3,6.24782,P,ugm-3
08-01-2024,24:00,0.39727,P,ugm-3,6.90856,P,ugm-3,7.51770,P,ugm-3
09-01-2024,01:00,0.53010,P,ugm-3,2.91504,P,ugm-3,3.72785,P,ugm-3
09-01-2024,02:00,0.26505,P,ugm-3,3.72812,P,ugm-3,4.13453,P,ugm-3
09-01-2024,03:00,0.36445,P,ugm-3,2.74542,P,ugm-3,3.30423,P,ugm-3
09-01-2024,04:00,0.29818,P,ugm-3,3.60954,P,ugm-3,4.06675,P,ugm-3
09-01-2024,05:00,0.23192,P,ugm-3,2.28778,P,ugm-3,2.64339,P,ugm-3
09-01-2024,06:00,0.43071,P,ugm-3,2.84716,P,ugm-3,3.50757,P,ugm-3
09-01-2024,07:00,0.96081,P,ugm-3,5.38942,P,ugm-3,6.86264,P,ugm-3
09-01-2024,08:00,0.99394,P,ugm-3,7.93117,P,ugm-3,9.45519,P,ugm-3
09-01-2024,09:00,1.39152,P,ugm-3,10.06661,P,ugm-3,12.20024,P,ugm-3
09-01-2024,10:00,1.45778,P,ugm-3,11.03253,P,ugm-3,13.26776,P,ugm-3
09-01-2024,11:00,1.72283,P,ugm-3,8.94860,P,ugm-3,11.59023,P,ugm-3
09-01-2024,12:00,3.41253,P,ugm-3,10.62785,P,ugm-3,15.86032,P,ugm-3
09-01-2024,13:00,2.55111,P,ugm-3,12.81285,P,ugm-3,16.72450,P,ugm-3
09-01-2024,14:00,1.68970,P,ugm-3,10.42276,P,ugm-3,13.01359,P,ugm-3
09-01-2024,15:00,2.68364,P,ugm-3,15.04969,P,ugm-3,19.16455,P,ugm-3
09-01-2024,16:00,1.88849,P,ugm-3,16.62475,P,ugm-3,19.52039,P,ugm-3
09-01-2024,17:00,3.08122,P,ugm-3,18.15099,P,ugm-3,22.87546,P,ugm-3
09-01-2024,18:00,2.08728,P,ugm-3,15.04909,P,ugm-3,18.24953,P,ugm-3
09-01-2024,19:00,1.49091,P,ugm-3,11.94758,P,ugm-3,14.23362,P,ugm-3
09-01-2024,20:00,2.81617,P,ugm-3,11.99977,P,ugm-3,16.31783,P,ugm-3
09-01-2024,21:00,1.12647,P,ugm-3,13.62475,P,ugm-3,15.35197,P,ugm-3
09-01-2024,22:00,0.66263,P,ugm-3,8.08333,P,ugm-3,9.09935,P,ugm-3
09-01-2024,23:00,0.62950,P,ugm-3,7.82913,P,ugm-3,8.79434,P,ugm-3
09-01-2024,24:00,0.36445,P,ugm-3,5.13464,P,ugm-3,5.69345,P,ugm-3
10-01-2024,01:00,0.22105,P,ugm-3,2.91697,P,ugm-3,3.25590,P,ugm-3
10-01-2024,02:00,0.30947,P,ugm-3,1.49260,P,ugm-3,1.96711,P,ugm-3
10-01-2024,03:00,0.26526,P,ugm-3,1.52647,P,ugm-3,1.93319,P,ugm-3
10-01-2024,04:00,0.26526,P,ugm-3,1.57734,P,ugm-3,1.98406,P,ugm-3
10-01-2024,05:00,0.36473,P,ugm-3,1.78094,P,ugm-3,2.34018,P,ugm-3
10-01-2024,06:00,0.49736,P,ugm-3,3.56164,P,ugm-3,4.32424,P,ugm-3
10-01-2024,07:00,0.79577,P,ugm-3,6.71609,P,ugm-3,7.93626,P,ugm-3
10-01-2024,08:00,0.99471,P,ugm-3,8.75123,P,ugm-3,10.27643,P,ugm-3
10-01-2024,09:00,1.49207,P,ugm-3,12.36374,P,ugm-3,14.65155,P,ugm-3
10-01-2024,10:00,1.65785,P,ugm-3,12.87264,P,ugm-3,15.41465,P,ugm-3
10-01-2024,11:00,1.52523,P,ugm-3,11.85504,P,ugm-3,14.19369,P,ugm-3
10-01-2024,12:00,1.49207,P,ugm-3,9.56570,P,ugm-3,11.85351,P,ugm-3
10-01-2024,13:00,1.29313,P,ugm-3,8.03930,P,ugm-3,10.02207,P,ugm-3
10-01-2024,14:00,1.22681,P,ugm-3,8.54797,P,ugm-3,10.42905,P,ugm-3
10-01-2024,15:00,1.59154,P,ugm-3,8.29397,P,ugm-3,10.73429,P,ugm-3
10-01-2024,16:00,1.59154,P,ugm-3,10.37978,P,ugm-3,12.82011,P,ugm-3
10-01-2024,17:00,1.88995,P,ugm-3,14.70432,P,ugm-3,17.60221,P,ugm-3
10-01-2024,18:00,2.02258,P,ugm-3,15.51843,P,ugm-3,18.61968,P,ugm-3
10-01-2024,19:00,1.35944,P,ugm-3,11.24440,P,ugm-3,13.32884,P,ugm-3
10-01-2024,20:00,1.52523,P,ugm-3,6.46246,P,ugm-3,8.80110,P,ugm-3
10-01-2024,21:00,1.22681,P,ugm-3,5.13945,P,ugm-3,7.02053,P,ugm-3
10-01-2024,22:00,0.43104,P,ugm-3,3.66332,P,ugm-3,4.32424,P,ugm-3
10-01-2024,23:00,0.59683,P,ugm-3,3.56174,P,ugm-3,4.47686,P,ugm-3
10-01-2024,24:00,0.36473,P,ugm-3,2.49316,P,ugm-3,3.05241,P,ugm-3
11-01-2024,01:00,0.35395,P,ugm-3,1.83320,P,ugm-3,2.37592,P,ugm-3
11-01-2024,02:00,0.17697,P,ugm-3,1.42573,P,ugm-3,1.69708,P,ugm-3
11-01-2024,03:00,0.23228,P,ugm-3,0.81483,P,ugm-3,1.17099,P,ugm-3
11-01-2024,04:00,0.23228,P,ugm-3,0.66209,P,ugm-3,1.01825,P,ugm-3
11-01-2024,05:00,0.36501,P,ugm-3,0.91679,P,ugm-3,1.47646,P,ugm-3
11-01-2024,06:00,0.79639,P,ugm-3,2.59733,P,ugm-3,3.81844,P,ugm-3
11-01-2024,07:00,1.62596,P,ugm-3,3.97279,P,ugm-3,6.46589,P,ugm-3
11-01-2024,08:00,0.59729,P,ugm-3,6.41557,P,ugm-3,7.33140,P,ugm-3
11-01-2024,09:00,1.16140,P,ugm-3,9.82727,P,ugm-3,11.60806,P,ugm-3
11-01-2024,10:00,1.55959,P,ugm-3,9.47128,P,ugm-3,11.86262,P,ugm-3
11-01-2024,11:00,0.69684,P,ugm-3,6.00837,P,ugm-3,7.07684,P,ugm-3
11-01-2024,12:00,0.79639,P,ugm-3,5.24478,P,ugm-3,6.46589,P,ugm-3
11-01-2024,13:00,0.92912,P,ugm-3,4.99035,P,ugm-3,6.41498,P,ugm-3
11-01-2024,14:00,1.02867,P,ugm-3,5.55049,P,ugm-3,7.12775,P,ugm-3
11-01-2024,15:00,0.53092,P,ugm-3,4.93904,P,ugm-3,5.75312,P,ugm-3
11-01-2024,16:00,1.26095,P,ugm-3,6.31440,P,ugm-3,8.24783,P,ugm-3
11-01-2024,17:00,0.63047,P,ugm-3,5.44827,P,ugm-3,6.41498,P,ugm-3
11-01-2024,18:00,1.19458,P,ugm-3,7.17985,P,ugm-3,9.01152,P,ugm-3
11-01-2024,19:00,1.92460,P,ugm-3,6.72236,P,ugm-3,9.67338,P,ugm-3
11-01-2024,20:00,0.69684,P,ugm-3,5.39742,P,ugm-3,6.46589,P,ugm-3
11-01-2024,21:00,1.22776,P,ugm-3,4.78700,P,ugm-3,6.66954,P,ugm-3
11-01-2024,22:00,1.92460,P,ugm-3,3.56579,P,ugm-3,6.51680,P,ugm-3
11-01-2024,23:00,0.19910,P,ugm-3,3.86955,P,ugm-3,4.17483,P,ugm-3
11-01-2024,24:00,0.26546,P,ugm-3,2.49498,P,ugm-3,2.90201,P,ugm-3
12-01-2024,01:00,0.35422,P,ugm-3,1.76667,P,ugm-3,2.30981,P,ugm-3
12-01-2024,02:00,0.26567,P,ugm-3,2.44594,P,ugm-3,2.85329,P,ugm-3
12-01-2024,03:00,0.19925,P,ugm-3,5.85963,P,ugm-3,6.16515,P,ugm-3
12-01-2024,04:00,0.26567,P,ugm-3,4.94257,P,ugm-3,5.34992,P,ugm-3
12-01-2024,05:00,0.39850,P,ugm-3,1.68180,P,ugm-3,2.29282,P,ugm-3
12-01-2024,06:00,0.89663,P,ugm-3,9.57978,P,ugm-3,10.95460,P,ugm-3
12-01-2024,07:00,1.62722,P,ugm-3,13.50377,P,ugm-3,15.99881,P,ugm-3
12-01-2024,08:00,3.68615,P,ugm-3,24.20563,P,ugm-3,29.85764,P,ugm-3
12-01-2024,09:00,13.31662,P,ugm-3,44.23906,P,ugm-3,64.65759,P,ugm-3
12-01-2024,10:00,5.97753,P,ugm-3,38.42338,P,ugm-3,47.58880,P,ugm-3
12-01-2024,11:00,5.87791,P,ugm-3,31.03530,P,ugm-3,40.04796,P,ugm-3
12-01-2024,12:00,5.04770,P,ugm-3,24.25792,P,ugm-3,31.99761,P,ugm-3
12-01-2024,13:00,6.54208,P,ugm-3,24.10653,P,ugm-3,34.13758,P,ugm-3
12-01-2024,14:00,8.63422,P,ugm-3,22.12147,P,ugm-3,35.36042,P,ugm-3
12-01-2024,15:00,8.00325,P,ugm-3,19.57327,P,ugm-3,31.84475,P,ugm-3
12-01-2024,16:00,6.77454,P,ugm-3,24.61628,P,ugm-3,35.00375,P,ugm-3
12-01-2024,17:00,7.07342,P,ugm-3,23.24087,P,ugm-3,34.08663,P,ugm-3
12-01-2024,18:00,6.40924,P,ugm-3,20.33598,P,ugm-3,30.16335,P,ugm-3
12-01-2024,19:00,5.57903,P,ugm-3,16.05523,P,ugm-3,24.60963,P,ugm-3
12-01-2024,20:00,4.68240,P,ugm-3,22.57616,P,ugm-3,29.75574,P,ugm-3
12-01-2024,21:00,1.85968,P,ugm-3,10.80357,P,ugm-3,13.65503,P,ugm-3
12-01-2024,22:00,1.22872,P,ugm-3,6.87967,P,ugm-3,8.76368,P,ugm-3
12-01-2024,23:00,1.06267,P,ugm-3,9.73280,P,ugm-3,11.36221,P,ugm-3
12-01-2024,24:00,1.02946,P,ugm-3,11.26132,P,ugm-3,12.83981,P,ugm-3
13-01-2024,01:00,0.48744,P,ugm-3,5.50747,P,ugm-3,6.25486,P,ugm-3
13-01-2024,02:00,0.44312,P,ugm-3,4.75956,P,ugm-3,5.43901,P,ugm-3
13-01-2024,03:00,0.29911,P,ugm-3,4.02856,P,ugm-3,4.48718,P,ugm-3
13-01-2024,04:00,0.23264,P,ugm-3,3.16165,P,ugm-3,3.51836,P,ugm-3
13-01-2024,05:00,0.33234,P,ugm-3,3.46769,P,ugm-3,3.97728,P,ugm-3
13-01-2024,06:00,0.36558,P,ugm-3,3.51871,P,ugm-3,4.07926,P,ugm-3
13-01-2024,07:00,0.66469,P,ugm-3,5.96656,P,ugm-3,6.98573,P,ugm-3
13-01-2024,08:00,0.69792,P,ugm-3,8.61810,P,ugm-3,9.68823,P,ugm-3
13-01-2024,09:00,1.82788,P,ugm-3,14.84007,P,ugm-3,17.64278,P,ugm-3
13-01-2024,10:00,5.94893,P,ugm-3,28.91749,P,ugm-3,38.03906,P,ugm-3
13-01-2024,11:00,8.47473,P,ugm-3,30.80660,P,ugm-3,43.80101,P,ugm-3
13-01-2024,12:00,6.14834,P,ugm-3,24.53249,P,ugm-3,33.95980,P,ugm-3
13-01-2024,13:00,5.64982,P,ugm-3,20.65671,P,ugm-3,29.31965,P,ugm-3
13-01-2024,14:00,3.48960,P,ugm-3,19.94075,P,ugm-3,25.29138,P,ugm-3
13-01-2024,15:00,6.94596,P,ugm-3,33.76258,P,ugm-3,44.41290,P,ugm-3
13-01-2024,16:00,9.47176,P,ugm-3,41.46462,P,ugm-3,55.98778,P,ugm-3
13-01-2024,17:00,29.14643,P,ugm-3,68.35580,P,ugm-3,113.04637,P,ugm-3
13-01-2024,18:00,6.54715,P,ugm-3,36.05677,P,ugm-3,46.09559,P,ugm-3
13-01-2024,19:00,4.75250,P,ugm-3,34.21937,P,ugm-3,41.50643,P,ugm-3
13-01-2024,20:00,1.86112,P,ugm-3,21.72384,P,ugm-3,24.57752,P,ugm-3
13-01-2024,21:00,2.72521,P,ugm-3,22.64251,P,ugm-3,26.82111,P,ugm-3
13-01-2024,22:00,2.09376,P,ugm-3,20.50029,P,ugm-3,23.71067,P,ugm-3
13-01-2024,23:00,1.89435,P,ugm-3,16.87976,P,ugm-3,19.78439,P,ugm-3
13-01-2024,24:00,0.89733,P,ugm-3,14.73718,P,ugm-3,16.11306,P,ugm-3
14-01-2024,01:00,0.62085,P,ugm-3,7.55300,P,ugm-3,8.50496,P,ugm-3
14-01-2024,02:00,0.26608,P,ugm-3,6.94031,P,ugm-3,7.34829,P,ugm-3
14-01-2024,03:00,0.26608,P,ugm-3,8.31811,P,ugm-3,8.72609,P,ugm-3
14-01-2024,04:00,0.46564,P,ugm-3,5.97093,P,ugm-3,6.68490,P,ugm-3
14-01-2024,05:00,0.16630,P,ugm-3,4.79696,P,ugm-3,5.05195,P,ugm-3
14-01-2024,06:00,0.56542,P,ugm-3,6.32824,P,ugm-3,7.19520,P,ugm-3
14-01-2024,07:00,0.53216,P,ugm-3,7.85910,P,ugm-3,8.67506,P,ugm-3
14-01-2024,08:00,1.96234,P,ugm-3,13.01448,P,ugm-3,16.02335,P,ugm-3
14-01-2024,09:00,1.76278,P,ugm-3,14.69827,P,ugm-3,17.40116,P,ugm-3
14-01-2024,10:00,2.92688,P,ugm-3,18.57765,P,ugm-3,23.06546,P,ugm-3
14-01-2024,11:00,3.39252,P,ugm-3,13.27100,P,ugm-3,18.47278,P,ugm-3
14-01-2024,12:00,2.22842,P,ugm-3,8.16690,P,ugm-3,11.58376,P,ugm-3
14-01-2024,13:00,2.06212,P,ugm-3,7.75850,P,ugm-3,10.92037,P,ugm-3
14-01-2024,14:00,2.92688,P,ugm-3,8.21860,P,ugm-3,12.70642,P,ugm-3
14-01-2024,15:00,2.29494,P,ugm-3,9.69786,P,ugm-3,13.21671,P,ugm-3
14-01-2024,16:00,1.86256,P,ugm-3,9.03406,P,ugm-3,11.88994,P,ugm-3
14-01-2024,17:00,1.13084,P,ugm-3,8.62512,P,ugm-3,10.35905,P,ugm-3
14-01-2024,18:00,2.49450,P,ugm-3,12.24954,P,ugm-3,16.07438,P,ugm-3
14-01-2024,19:00,1.39692,P,ugm-3,10.76862,P,ugm-3,12.91053,P,ugm-3
14-01-2024,20:00,1.29714,P,ugm-3,9.74793,P,ugm-3,11.73685,P,ugm-3
14-01-2024,21:00,1.09758,P,ugm-3,7.75758,P,ugm-3,9.44051,P,ugm-3
14-01-2024,22:00,0.79824,P,ugm-3,6.99185,P,ugm-3,8.21579,P,ugm-3
14-01-2024,23:00,0.56542,P,ugm-3,6.12412,P,ugm-3,6.99108,P,ugm-3
14-01-2024,24:00,0.63194,P,ugm-3,5.92006,P,ugm-3,6.88902,P,ugm-3
15-01-2024,01:00,0.17752,P,ugm-3,4.01759,P,ugm-3,4.28979,P,ugm-3
15-01-2024,02:00,0.22191,P,ugm-3,3.13243,P,ugm-3,3.47268,P,ugm-3
15-01-2024,03:00,0.13314,P,ugm-3,3.93243,P,ugm-3,4.13658,P,ugm-3
15-01-2024,04:00,0.26629,P,ugm-3,4.29004,P,ugm-3,4.69834,P,ugm-3
15-01-2024,05:00,0.26629,P,ugm-3,3.11545,P,ugm-3,3.52375,P,ugm-3
15-01-2024,06:00,0.73229,P,ugm-3,4.39262,P,ugm-3,5.51544,P,ugm-3
15-01-2024,07:00,1.69757,P,ugm-3,8.22370,P,ugm-3,10.82660,P,ugm-3
15-01-2024,08:00,2.69614,P,ugm-3,14.35291,P,ugm-3,18.48693,P,ugm-3
15-01-2024,09:00,4.66000,P,ugm-3,19.76807,P,ugm-3,26.91330,P,ugm-3
15-01-2024,10:00,3.19543,P,ugm-3,13.38307,P,ugm-3,18.28266,P,ugm-3
15-01-2024,11:00,2.79600,P,ugm-3,10.62497,P,ugm-3,14.91211,P,ugm-3
15-01-2024,12:00,2.49643,P,ugm-3,8.83728,P,ugm-3,12.66508,P,ugm-3
15-01-2024,13:00,2.26343,P,ugm-3,7.91782,P,ugm-3,11.38836,P,ugm-3
15-01-2024,14:00,2.33000,P,ugm-3,8.07109,P,ugm-3,11.64370,P,ugm-3
15-01-2024,15:00,2.72943,P,ugm-3,9.75674,P,ugm-3,13.94180,P,ugm-3
15-01-2024,16:00,2.99571,P,ugm-3,15.93633,P,ugm-3,20.52969,P,ugm-3
15-01-2024,17:00,4.19400,P,ugm-3,21.81038,P,ugm-3,28.24108,P,ugm-3
15-01-2024,18:00,6.35757,P,ugm-3,40.65684,P,ugm-3,50.40497,P,ugm-3
15-01-2024,19:00,4.92628,P,ugm-3,39.68518,P,ugm-3,47.23870,P,ugm-3
15-01-2024,20:00,3.42843,P,ugm-3,28.24433,P,ugm-3,33.50118,P,ugm-3